カタログに戻る

SL-18 R/B

運用中SSO
NORAD 26703·ROCKET BODY·🇷🇺 Russia

打ち上げ Feb 20, 2001 から Svobodny Cosmodrome

Loading…

次のパス (今後24時間)

TLE

最新Source: Space-Track

元期: Sep 14, 2026, 22:09 UTC

1 26703U 01007B   26257.92297018  .00001831  00000-0  12286-3 0  9991
2 26703  97.6827 276.5551 0010243  62.8146 297.4125 15.08062279674666

AllMySatでSL-18 R/Bをリアルタイム追跡

Download on the App Store